Flag for Iran Weather past 2 weeks in Mashhad, Iran

Now
50 °F

Clear.


Feels Like: 48 °F
Forecast: 40 / 47 °F
Wind: 5 mph from South

Location: Mashhad Airport

Current Time: Oct 26, 2014 at 4:41:55 AM

Latest Report: Oct 26, 2014 at 4:00 AM


Visibility: 10 mi

Pressure: 30.07 "Hg

Humidity: 62%

Dew point: 37 °F

Location of MashhadLocation

Historic Weather in Mashhad — Graph

°F

Mashhad temperature yesterday

Maximum temperature yesterday: 73 °F (at 1:00 PM)
Minimum temperature yesterday: 50 °F (at 4:55 AM)
Average temperature yesterday: 62 °F

Past Weeks' High & Low Weather Summary

 TemperatureHumidityPressure
High82 °F (Oct 20, 12:30 PM)100% (Oct 12, 5:55 AM)30.33 "Hg (Oct 12, 5:55 AM)
Low41 °F (Oct 13, 2:30 AM)14% (Oct 14, 1:30 PM)29.80 "Hg (Oct 18, 12:59 PM)
Average61 °F48%30.08 "Hg
* Reported Oct 11 2:30 AM — Oct 26 3:00 AM, Mashhad, Weather by CustomWeather, © 2014

Note: Actual official high and low records may vary slightly from our data, if they occured in-between our weather recording intervals... More about our weather records

Advertising

Mashhad weather history for previous 24 hours

 ConditionsComfort  
Time TempWeatherWind HumidityBarometerVisibility
3:00 AM
Oct 26
54 °FClear.5 mph58%30.04 "Hg10 mi
2:30 AM54 °FClear.5 mph58%30.04 "Hg10 mi
2:00 AM54 °FClear.5 mph58%30.01 "Hg10 mi
1:30 AM54 °FClear.7 mph58%30.01 "Hg10 mi
1:00 AM54 °FClear.No wind54%30.01 "Hg10 mi
12:30 AM55 °FClear.No wind51%30.01 "Hg10 mi
12:00 AM55 °FClear.No wind55%30.01 "Hg10 mi
11:30 PM
Oct 25
55 °FClear.No wind55%30.01 "Hg10 mi
11:00 PM57 °FClear.No wind44%30.01 "Hg10 mi
10:30 PM59 °FClear.5 mph45%30.01 "Hg10 mi
10:00 PM59 °FClear.7 mph42%30.01 "Hg10 mi
9:30 PM61 °FClear.7 mph39%30.01 "Hg10 mi
8:55 PM61 °FClear.7 mph39%30.01 "Hg10 mi
8:30 PM63 °FClear.7 mph37%30.01 "Hg10 mi
8:00 PM63 °FClear.7 mph37%30.01 "Hg10 mi
7:30 PM64 °FClear.7 mph34%29.98 "Hg10 mi
7:00 PM64 °FClear.7 mph34%29.98 "Hg10 mi
6:30 PM64 °FClear.7 mph32%29.98 "Hg10 mi
6:00 PM64 °FClear.7 mph34%29.98 "Hg10 mi
5:30 PM66 °FClear.7 mph32%29.98 "Hg10 mi
5:00 PM70 °FSunny.7 mph27%29.95 "Hg10 mi
4:30 PM72 °FSunny.7 mph25%29.95 "Hg10 mi
4:00 PM73 °FSunny.7 mph23%29.95 "Hg10 mi
3:30 PM73 °FPassing clouds.7 mph23%29.95 "HgN/A
3:00 PM73 °FPassing clouds.9 mph23%29.95 "HgN/A
2:30 PM73 °FPassing clouds.12 mph23%29.95 "HgN/A
2:00 PM73 °FPassing clouds.12 mph23%29.95 "HgN/A
1:30 PM73 °FPassing clouds.9 mph25%29.98 "HgN/A
1:00 PM73 °FPassing clouds.9 mph25%29.98 "HgN/A
12:30 PM72 °FPassing clouds.12 mph29%30.01 "HgN/A
12:00 PM72 °FSunny.12 mph29%30.01 "Hg10 mi
11:30 AM72 °FSunny.7 mph29%30.04 "Hg10 mi
11:00 AM70 °FSunny.7 mph31%30.07 "Hg10 mi
10:30 AM72 °FSunny.7 mph33%30.07 "Hg10 mi
10:00 AM68 °FSunny.7 mph38%30.09 "Hg10 mi
9:30 AM66 °FSunny.5 mph40%30.09 "Hg10 mi
9:00 AM66 °FSunny.7 mph40%30.09 "Hg10 mi
8:30 AM66 °FSunny.No wind40%30.12 "Hg10 mi
8:00 AM61 °FSunny.5 mph45%30.12 "Hg10 mi
7:30 AM57 °FSunny.5 mph44%30.12 "Hg10 mi
7:00 AM54 °FSunny.5 mph54%30.12 "Hg10 mi
6:00 AM50 °FClear.7 mph62%30.09 "Hg10 mi
5:30 AM50 °FClear.5 mph71%30.09 "Hg10 mi
4:55 AM50 °FClear.5 mph67%30.09 "Hg10 mi
4:30 AM52 °FClear.5 mph62%30.09 "Hg10 mi
4:00 AM52 °FClear.5 mph54%30.09 "Hg10 mi
Weather by CustomWeather, © 2014

See weather overviewHow to use our weather pages